This demonstration page uses our WeatherBlox Daily Observations layout. Learn more.

Left ArrowRight Arrow

41.86663, -103.66717

Hourly Observations for November 2, 2019

Temp ( °F °C ) Dew Point ( °F °C ) Humidity (%) Winds ( mph kmh ) Pressure ( in mb ) Visibility ( mi km ) Precip ( " mm )
12:53 am 00:53 Clear 22 -5.6 18 -7.8 85 85 NW 6 9 30.45 1031 10 16 0.00 0.00
1:53 am 01:53 Clear 17 -8.3 14 -10 88 88 N 3 6 30.45 1031 10 16 0.00 0.00
2:53 am 02:53 Clear 18 -7.8 14 -10 84 84 N 3 6 30.42 1030 10 16 0.00 0.00
3:53 am 03:53 Clear 15 -9.4 13 -10.6 91 91 Calm 30.42 1030 10 16 0.00 0.00
4:53 am 04:53 Clear 14 -10 11 -11.7 88 88 Calm 30.40 1030 10 16 0.00 0.00
5:53 am 05:53 Clear 15 -9.4 12 -11.1 88 88 Calm 30.40 1029 10 16 0.00 0.00
6:53 am 06:53 Clear 14 -10 11 -11.7 88 88 N 5 7 30.40 1029 10 16 0.00 0.00
7:53 am 07:53 Sunny 16 -8.9 12 -11.1 84 84 Calm 30.37 1029 10 16 0.00 0.00
8:53 am 08:53 Sunny 23 -5 19 -7.2 85 85 Calm 30.37 1029 10 16 0.00 0.00
9:53 am 09:53 Sunny 31 -0.6 24 -4.4 76 76 WNW 3 6 30.33 1027 10 16 0.00 0.00
10:53 am 10:53 Sunny 40 4.4 24 -4.4 53 53 W 5 7 30.31 1026 10 16 0.00 0.00
11:53 am 11:53 Sunny 46 7.8 21 -6.1 37 37 W 13 20 30.28 1025 10 16 0.00 0.00
12:53 pm 12:53 Sunny 51 10.6 21 -6.1 31 31 W 13 20 30.22 1023 10 16 0.00 0.00
1:53 pm 13:53 Sunny 54 12.2 16 -8.9 22 22 WNW 13 20 30.20 1023 10 16 0.00 0.00
2:53 pm 14:53 Sunny 54 12.2 15 -9.4 21 21 WNW 10 17 30.19 1022 10 16 0.00 0.00
3:53 pm 15:53 Sunny 55 12.8 16 -8.9 21 21 NW 15 24 30.18 1022 10 16 0.00 0.00
4:53 pm 16:53 Sunny 51 10.6 16 -8.9 25 25 NW 9 15 30.19 1022 10 16 0.00 0.00
5:53 pm 17:53 Clear 46 7.8 18 -7.8 32 32 N 8 13 30.19 1022 10 16 0.00 0.00
6:53 pm 18:53 Clear 39 3.9 19 -7.2 45 45 WSW 5 7 30.22 1023 10 16 0.00 0.00
7:53 pm 19:53 Clear 38 3.3 21 -6.1 51 51 W 7 11 30.22 1023 10 16 0.00 0.00
8:53 pm 20:53 Clear 35 1.7 20 -6.7 54 54 Calm 30.19 1023 10 16 0.00 0.00
9:53 pm 21:53 Clear 30 -1.1 19 -7.2 64 64 Calm 30.17 1022 10 16 0.00 0.00
10:53 pm 22:53 Clear 27 -2.8 18 -7.8 69 69 N 5 7 30.15 1021 10 16 0.00 0.00
11:53 pm 23:53 Clear 26 -3.3 18 -7.8 71 71 SSE 3 6 30.12 1020 10 16 0.00 0.00

Powered by AerisWeather